Wind_Speed
28 26 26 26 28 29 29 29 29 27 25 25 27 29 30 29 27 24 22 20 20 22 24 26 26 27 26 26 26 26 26 25 24 22 21 19 18 17 17 16 16 16 15 15 15 14 14 13 13 13 13 13 13 13 13 13 13 14 14 14 14 14 14 14 14 14 14 14 14 14 14 14 15 15 15 14 13 13 12 12 11 11 11 11 12 12
30 29 28 28 29 30 31 31 30 27 25 25 27 29 29 27 25 22 21 21 22 24 25 26 27 27 26 26 26 26 25 24 23 22 20 18 17 17 16 16 16 15 15 15 15 14 14 14 13 13 13 13 13 13 13 14 14 14 14 14 14 14 14 14 14 14 14 14 14 14 14 14 14 15 14 14 14 13 13 12 12 12 11 12 12 12
32 30 29 30 30 31 31 31 29 27 25 26 27 29 28 26 23 22 22 22 23 25 27 28 28 27 27 26 26 25 25 24 22 21 19 18 17 16 16 16 15 15 15 15 14 14 14 14 14 13 13 13 14 14 14 14 14 14 14 14 14 14 14 14 14 14 14 14 14 14 14 14 14 14 14 14 14 14 13 13 12 12 12 12 12 12
32 31 30 31 31 32 32 31 29 27 25 25 26 27 26 24 23 23 24 24 25 26 28 29 29 28 27 26 26 25 24 23 22 20 18 17 16 16 16 15 15 15 15 15 14 14 14 14 14 14 14 14 14 14 14 14 14 14 14 14 14 14 14 14 13 14 14 14 14 14 14 14 14 14 14 14 14 14 14 13 13 13 12 12 12 13
33 32 31 31 32 33 32 31 29 27 26 25 25 24 24 24 25 25 26 27 28 29 30 30 29 28 27 27 26 25 23 22 21 19 18 17 16 16 15 15 15 15 15 14 14 14 14 14 14 14 14 14 14 14 15 15 15 15 14 14 14 14 13 13 13 14 14 14 14 14 14 14 14 14 14 14 14 14 14 14 14 13 13 13 13 13
34 34 33 33 33 33 33 31 29 28 27 26 25 25 24 25 27 28 29 30 31 31 31 30 29 29 28 27 25 24 23 21 20 19 17 17 16 16 15 15 15 15 15 14 14 14 14 14 14 14 14 14 15 15 15 15 15 15 14 14 14 14 13 13 13 14 14 14 14 14 14 14 14 14 14 14 14 14 14 14 14 14 13 13 13 13
38 37 36 35 35 34 33 31 30 29 29 29 29 29 29 30 31 32 32 33 32 32 31 31 31 30 28 26 25 23 22 20 19 18 17 16 16 16 16 15 15 15 15 14 14 14 14 14 14 14 14 15 15 15 15 15 15 15 14 14 14 14 13 14 14 14 14 14 14 14 14 14 14 14 14 14 14 14 14 14 14 14 14 13 13 13
40 40 39 37 36 35 33 32 31 30 31 32 32 33 34 34 34 35 35 34 34 33 32 32 32 30 28 25 23 22 21 19 18 17 17 16 16 16 16 15 15 15 15 15 14 14 14 14 14 15 15 15 15 15 15 15 15 14 14 14 14 14 14 14 14 14 14 14 14 14 14 14 14 14 14 14 15 15 15 15 14 14 14 14 14 13
40 40 39 38 37 35 33 32 31 31 32 33 34 36 37 37 37 36 36 35 35 34 34 32 31 28 26 24 22 21 20 19 18 17 16 16 16 16 16 16 15 15 15 15 15 14 14 14 15 15 15 15 15 15 15 15 15 14 14 14 14 14 14 14 14 14 14 14 14 14 14 14 14 14 14 15 15 15 15 15 15 15 14 14 14 14
39 39 38 37 36 34 33 32 31 32 32 33 34 36 37 37 37 37 36 35 35 34 33 31 28 26 24 22 21 20 19 18 17 17 16 16 16 16 16 16 15 15 15 15 15 15 15 15 15 15 15 15 15 15 15 15 14 14 14 14 14 14 14 15 14 15 15 15 15 15 15 15 15 15 15 15 15 15 15 15 15 15 15 15 14 14
37 37 36 35 34 33 33 32 32 32 32 33 34 34 35 35 36 35 34 34 33 32 30 28 26 24 22 20 19 18 18 17 17 17 16 16 16 16 16 16 15 15 15 15 15 15 15 15 15 16 16 16 15 15 15 15 14 14 14 14 15 15 15 15 15 15 15 15 15 15 15 15 15 15 15 15 15 15 15 16 16 15 15 15 15 14
35 35 35 34 33 33 32 32 32 32 32 32 33 33 33 33 33 32 31 30 29 28 27 25 23 22 20 19 18 18 17 17 17 16 16 16 16 16 16 15 15 15 15 15 15 15 15 15 16 16 16 16 15 15 15 15 14 14 15 15 15 15 15 15 15 15 15 15 15 15 15 15 16 16 16 16 16 16 16 16 16 16 16 15 15 15
34 34 34 33 33 32 32 32 32 32 31 31 31 31 31 30 30 29 28 27 26 25 24 23 21 19 18 17 17 17 17 17 17 16 16 16 16 16 15 15 15 15 15 15 15 15 16 16 16 16 16 16 15 15 15 15 15 15 15 15 15 15 15 16 16 16 16 16 16 16 16 16 16 16 16 16 16 16 16 16 16 16 16 16 15 15
34 34 33 33 33 32 32 31 31 31 30 30 30 29 29 29 28 27 26 24 23 22 21 20 19 18 17 18 18 18 17 17 16 16 16 16 15 15 15 15 16 16 16 16 16 16 16 16 16 16 16 16 15 15 15 15 15 15 15 15 16 16 16 16 16 16 16 16 16 16 16 17 16 16 16 16 16 16 16 16 16 16 16 16 16 15
33 33 33 33 32 32 31 31 30 30 29 29 29 28 28 27 26 25 23 22 21 20 20 18 18 17 18 18 18 18 17 16 16 16 16 16 16 16 16 16 16 16 16 16 16 16 16 16 16 16 16 15 15 15 15 15 15 15 15 16 16 16 17 17 17 17 17 17 17 17 17 17 17 17 17 17 17 17 17 17 16 16 16 16 16 16
33 32 32 32 31 31 30 30 29 29 28 28 27 27 26 25 23 22 21 20 20 19 18 18 17 17 18 18 18 17 16 16 15 16 15 16 16 16 16 16 16 16 16 16 16 16 16 16 16 16 16 15 15 15 15 15 15 16 16 16 17 17 17 17 18 18 18 18 18 18 18 18 18 18 18 17 17 17 17 17 17 17 17 16 16 16
32 32 31 31 30 30 29 29 28 27 27 26 25 25 23 22 21 20 19 19 19 18 17 17 17 17 18 18 17 17 16 16 15 16 16 16 16 16 16 16 16 16 16 16 16 16 16 16 16 16 16 16 16 16 16 16 16 16 17 17 17 18 18 18 18 18 18 18 18 18 18 18 18 18 18 18 18 18 18 17 17 17 17 17 17 17
30 30 30 29 28 28 28 27 26 25 25 24 23 22 21 20 19 19 18 18 17 17 17 17 17 17 17 17 17 16 16 15 15 16 16 16 16 16 16 16 16 16 16 16 16 16 15 15 15 15 16 16 16 16 16 16 17 17 17 18 18 18 19 19 19 19 19 19 19 19 19 19 19 19 19 19 18 18 18 18 18 18 18 18 18 17
29 28 28 27 26 26 25 24 24 23 22 21 20 19 18 18 17 17 17 16 16 16 16 16 17 17 16 16 16 16 16 15 15 16 16 16 16 16 16 16 16 16 16 16 16 15 15 15 15 16 16 16 16 16 17 17 17 17 18 18 19 19 19 19 19 19 19 19 19 19 19 19 19 19 19 19 19 19 19 19 19 18 18 18 18 18
27 26 26 25 24 23 22 21 21 20 18 17 16 16 16 16 15 15 15 15 15 15 16 16 16 16 16 16 16 16 16 16 15 16 16 16 16 16 16 16 16 15 15 15 15 15 15 15 15 16 16 16 17 17 17 17 18 18 18 19 19 19 19 20 20 20 20 20 20 20 20 20 20 20 20 20 20 19 19 19 19 19 19 19 19 19
24 24 23 22 21 20 19 18 17 16 15 14 13 13 14 14 14 14 14 14 15 15 15 15 15 15 15 15 16 16 16 16 15 15 16 16 16 16 16 16 15 15 15 15 15 15 15 15 16 16 16 17 17 17 17 18 18 18 19 19 19 20 20 20 20 20 20 20 20 20 20 20 20 20 20 20 20 20 20 20 20 20 20 20 20 20
21 21 20 19 18 17 16 15 14 13 12 12 11 12 12 13 13 14 14 15 15 15 15 15 15 15 15 15 15 16 16 15 15 15 15 15 15 15 16 15 15 15 15 15 15 15 15 16 16 16 17 17 17 17 18 18 18 19 19 19 19 20 20 20 20 20 21 21 21 21 21 21 21 21 21 20 20 20 20 20 20 20 20 20 20 20
18 17 17 16 15 14 14 13 13 13 12 12 12 12 13 14 14 14 15 15 14 14 14 14 15 15 15 15 15 16 16 15 15 15 15 14 15 15 15 15 14 14 15 15 15 15 15 16 16 17 17 17 17 17 18 18 18 19 19 19 20 20 20 20 20 21 21 21 21 21 21 21 21 21 21 21 21 21 21 21 20 20 20 21 21 21
15 14 14 14 13 13 13 13 13 13 13 13 13 13 14 14 15 15 14 14 14 14 14 14 14 15 15 15 15 15 15 15 14 14 14 14 14 15 15 14 14 14 14 15 15 15 15 16 16 17 17 17 17 17 18 18 18 19 19 19 19 20 20 20 20 21 21 21 21 21 21 21 21 21 21 21 21 21 21 21 21 21 21 21 21 21
13 13 12 12 12 12 12 13 13 13 13 13 14 14 14 14 14 14 14 14 14 14 14 14 14 14 14 14 14 14 14 14 14 13 13 13 14 14 14 14 14 14 14 14 15 15 15 16 16 16 16 16 17 17 17 18 18 18 18 19 19 19 20 20 20 20 21 21 21 21 21 21 21 21 21 21 21 21 21 21 21 21 21 21 21 21
11 11 11 11 11 11 12 13 13 13 14 14 14 14 14 14 14 14 14 14 14 14 14 13 13 13 13 13 13 13 13 13 13 13 13 13 13 13 14 14 13 13 14 14 14 14 15 15 15 16 16 16 16 16 17 17 17 18 18 18 19 19 20 20 20 21 21 21 21 21 21 22 22 22 22 22 22 22 22 22 22 22 21 22 22 22
11 11 10 10 11 12 12 13 13 14 14 14 14 14 14 13 13 13 13 13 13 13 12 12 12 12 12 12 12 12 12 12 12 12 12 12 13 13 13 13 13 13 13 14 14 14 14 15 15 15 16 16 16 16 17 17 17 18 18 19 19 19 20 20 21 21 21 21 22 22 22 22 22 22 22 22 22 22 22 22 22 22 22 22 22 22
12 12 12 12 12 13 13 14 14 14 14 14 14 14 13 13 13 13 13 13 12 12 11 11 11 11 11 11 11 12 12 12 12 12 12 12 12 13 13 13 13 13 13 13 14 14 14 15 15 16 16 16 17 17 17 18 18 18 19 19 20 20 20 21 21 21 22 22 22 22 22 22 22 22 22 22 22 22 22 22 22 22 22 22 22 23
13 13 13 13 14 14 14 14 14 14 14 13 13 13 13 13 12 12 12 12 11 11 10 10 10 11 11 11 11 12 12 12 12 12 12 12 12 13 13 13 13 13 13 14 14 15 15 15 16 16 17 17 18 18 18 19 19 19 20 20 20 21 21 21 21 22 22 22 22 22 22 23 23 23 23 23 23 23 23 23 23 22 22 23 23 23
13 13 13 13 13 13 13 13 13 13 13 13 13 12 12 12 11 11 11 11 10 10 10 10 10 11 11 11 11 12 12 12 12 12 12 12 13 13 14 14 14 14 14 15 15 15 16 16 17 17 17 18 18 19 19 20 20 20 21 21 21 21 22 22 22 22 22 22 23 23 23 23 23 23 23 23 23 23 23 23 23 23 23 23 23 23
12 12 12 12 12 12 12 12 12 12 12 12 12 11 11 11 11 10 10 10 10 10 10 11 11 11 11 11 11 12 12 12 13 13 13 13 13 14 15 15 15 16 16 16 16 16 17 18 18 18 18 19 19 20 21 21 21 21 22 22 22 22 22 22 22 22 22 23 23 23 23 23 23 23 23 24 24 24 24 23 23 23 23 23 23 23
11 11 11 12 12 12 12 12 11 11 11 11 11 10 10 10 10 10 10 10 10 11 11 11 11 12 12 12 12 12 13 13 14 14 14 14 14 15 16 16 16 17 17 17 17 17 18 18 19 20 20 20 20 21 21 22 22 22 22 22 22 22 22 22 22 22 22 23 23 23 23 24 24 24 24 24 24 24 24 24 24 23 23 23 23 24
11 11 11 11 11 11 11 11 10 10 10 10 10 10 10 10 10 10 11 11 11 11 12 12 12 13 13 13 13 13 13 14 14 15 15 15 15 16 17 17 17 18 18 18 18 18 18 19 20 21 21 21 21 22 22 22 22 22 22 22 22 22 22 22 22 22 23 23 23 24 24 24 24 24 24 24 24 24 24 24 24 24 24 24 24 24
11 11 11 10 10 10 10 10 10 10 10 10 10 10 10 10 11 11 11 12 12 12 13 13 13 14 14 14 14 14 14 15 15 16 16 16 16 17 18 18 18 19 19 19 19 19 19 20 20 21 21 22 22 22 22 22 22 22 22 22 22 22 23 23 22 22 23 23 23 24 24 24 24 24 24 24 24 25 25 24 24 24 24 24 24 24
11 11 11 10 10 10 10 10 10 10 10 10 10 10 11 11 11 12 12 13 13 13 14 14 14 14 15 15 15 15 15 15 16 16 17 17 17 18 18 19 19 19 19 19 19 20 20 20 21 21 21 22 22 23 23 23 23 23 23 23 23 23 23 23 23 22 23 23 23 23 24 24 24 24 24 24 24 25 25 25 25 24 24 24 24 24
11 11 11 10 10 10 10 10 10 10 10 10 11 11 11 12 12 13 13 14 14 14 15 15 15 15 15 15 15 15 15 16 16 17 17 18 18 18 19 19 19 19 19 19 20 20 20 20 21 21 21 22 22 23 23 23 23 23 23 23 23 23 23 23 23 23 23 23 23 24 24 24 24 24 24 24 24 25 25 25 25 25 24 24 24 24
11 11 10 10 10 10 10 10 10 10 11 11 11 12 12 13 13 14 14 14 15 15 15 15 16 16 16 16 16 16 16 17 17 18 18 19 19 19 19 19 19 19 19 20 20 20 20 21 21 21 22 22 22 23 23 24 24 23 23 23 23 23 23 23 23 23 23 23 23 24 24 24 24 24 24 24 24 25 25 25 25 25 25 24 24 24
10 10 10 10 10 10 10 10 11 11 12 12 12 13 13 14 14 14 15 15 15 15 16 16 16 16 17 17 17 17 17 17 18 19 19 19 19 19 19 20 20 20 20 20 20 20 21 21 21 22 22 22 23 23 24 24 24 24 24 24 24 24 24 24 24 23 23 23 24 24 24 24 24 24 24 24 25 25 25 25 25 25 25 25 24 24
10 10 10 10 11 11 11 12 12 13 13 13 13 14 14 14 15 15 15 16 16 16 16 17 17 17 18 18 18 18 18 19 19 19 20 20 20 20 20 20 20 21 21 21 21 21 21 21 21 22 22 23 23 24 24 25 25 25 25 25 25 25 24 24 24 24 24 24 24 24 25 25 25 24 24 25 25 25 26 26 26 26 25 25 25 25
11 11 12 12 12 13 13 13 14 14 14 15 15 15 15 15 16 16 16 17 17 17 17 18 18 19 19 19 19 19 19 19 19 20 20 20 20 20 20 20 20 20 21 21 21 21 21 22 22 22 22 23 23 24 24 25 26 26 26 26 26 26 26 25 25 24 24 24 25 25 25 25 25 25 25 25 25 26 26 26 26 26 26 25 25 25
13 13 14 14 14 15 15 15 15 16 16 16 16 16 17 17 17 17 18 18 18 19 19 19 19 19 20 20 20 20 20 20 20 20 20 20 20 20 20 20 20 21 21 22 22 22 23 23 23 23 23 24 24 24 24 25 26 27 27 27 27 28 27 27 26 26 25 25 25 25 25 25 25 25 25 25 26 26 26 26 26 26 26 26 26 25
15 15 15 15 16 16 16 16 16 17 17 17 17 18 18 18 18 19 19 19 20 20 20 20 20 20 20 20 20 20 20 20 19 20 20 20 20 20 20 21 21 22 22 22 23 23 24 24 24 24 25 25 25 25 25 26 28 29 29 29 29 29 29 29 29 28 27 26 26 26 25 25 25 25 25 26 26 27 27 27 27 27 26 26 26 26
16 16 16 16 16 16 17 17 18 18 18 19 19 19 19 20 20 20 20 21 21 20 20 20 19 19 19 19 19 19 19 19 20 20 20 20 21 21 21 21 22 22 23 23 24 24 25 25 26 26 26 27 26 26 27 27 29 30 31 31 31 31 30 31 31 30 29 28 27 26 26 26 26 26 26 26 27 27 27 27 27 27 27 27 26 26
16 16 17 17 17 18 18 19 19 19 19 20 20 20 20 21 21 21 21 21 21 21 20 19 19 19 19 19 19 20 20 20 20 21 21 21 22 22 22 22 22 23 23 24 24 25 26 26 27 28 28 28 28 28 28 28 29 30 32 33 33 32 32 32 32 31 30 29 28 27 26 26 26 26 26 27 27 28 28 27 27 27 27 27 26 26
17 17 18 18 18 19 19 20 20 20 20 21 21 21 21 22 22 21 21 21 21 20 19 19 19 19 19 20 20 20 21 21 22 22 22 22 23 23 23 23 23 23 24 25 25 26 26 27 28 28 29 29 29 29 29 29 30 31 32 33 33 33 32 32 32 31 30 29 28 27 26 26 26 26 26 27 27 28 28 27 27 27 27 27 26 26
18 18 19 19 20 20 20 21 21 21 21 22 22 22 22 22 21 21 20 20 19 19 19 19 19 19 20 20 21 22 22 22 22 23 23 23 23 23 23 23 23 24 24 25 26 27 27 28 28 29 29 30 30 30 30 30 31 31 32 32 32 32 32 32 32 31 30 29 28 27 27 26 26 26 26 27 27 27 28 28 27 27 27 27 26 26
19 20 20 20 21 21 21 22 22 22 22 22 22 21 21 21 20 20 19 19 19 19 19 19 20 20 21 22 22 23 23 23 23 23 22 23 23 23 23 24 24 25 25 26 27 27 28 29 29 29 29 29 30 30 31 31 31 31 31 31 31 31 31 31 31 31 30 29 28 28 27 27 26 26 26 26 27 27 27 28 27 27 27 26 26 25
20 21 21 21 22 22 22 22 23 22 22 21 21 20 19 19 18 18 18 18 18 19 20 20 21 21 22 23 23 23 23 23 23 22 22 22 23 23 24 24 25 26 26 27 27 28 28 29 29 29 30 29 30 30 30 31 31 31 31 31 30 30 30 30 31 30 30 29 28 28 27 27 26 26 26 26 26 27 27 27 27 27 26 26 25 25
22 22 22 22 22 23 23 22 22 21 20 19 19 18 18 17 17 17 18 18 19 20 20 21 21 22 22 22 22 22 22 22 22 22 23 23 23 24 25 26 26 27 28 28 29 29 29 29 29 29 29 29 29 29 29 30 30 30 30 30 30 30 30 30 30 30 29 28 28 28 27 27 26 26 26 26 26 26 27 27 27 27 26 25 25 24
23 23 23 23 23 22 22 21 20 19 18 17 17 17 17 17 17 17 18 19 19 20 21 21 22 22 22 22 22 22 22 23 23 24 25 25 26 26 27 28 29 29 29 30 30 30 29 29 28 28 28 29 29 29 28 28 29 29 29 29 29 29 29 29 29 29 28 28 27 27 27 26 26 26 26 26 26 26 26 27 27 26 26 25 24 24
23 23 23 22 22 21 20 19 18 18 17 17 16 16 17 17 17 18 19 19 20 21 21 21 21 21 22 22 23 23 24 24 25 26 27 28 29 29 30 30 31 31 30 30 30 29 28 27 26 26 27 28 29 28 28 28 28 28 28 28 28 28 28 28 28 27 27 26 26 26 26 26 26 26 25 25 25 25 25 26 26 26 25 25 24 24
Wind_Direction
268 268 267 268 270 274 277 278 278 277 276 272 267 263 263 265 268 268 266 266 268 273 280 287 293 296 296 294 292 291 291 290 288 285 281 277 272 268 263 260 256 253 251 249 247 247 246 246 247 249 251 253 255 257 259 260 261 261 262 262 262 262 262 263 263 264 265 266 266 267 269 270 273 275 278 279 281 281 281 281 281 280 281 281 282 283
266 268 269 272 274 276 278 277 276 274 273 271 269 268 269 270 268 264 259 260 265 272 280 287 293 296 296 294 292 291 290 288 286 283 279 274 269 264 260 256 253 250 248 246 246 246 246 247 249 251 253 256 258 259 259 260 260 260 260 260 260 260 261 261 263 264 265 266 267 268 269 271 274 277 279 281 282 282 282 282 281 281 281 280 280 281
263 267 271 276 279 280 280 278 274 271 270 270 270 269 269 267 262 257 256 260 267 275 282 288 293 296 296 294 292 290 288 286 283 280 276 271 266 261 257 253 250 247 245 244 244 245 246 248 251 253 256 258 259 260 260 260 260 260 260 260 260 261 262 263 264 265 266 267 268 269 271 273 275 278 280 281 283 283 283 283 283 282 282 282 282 282
262 266 271 277 281 283 283 279 273 268 266 268 268 267 264 259 255 255 260 266 273 279 285 290 294 297 296 293 290 288 286 284 281 277 272 268 264 260 256 252 248 245 243 242 243 244 246 249 252 255 258 259 260 261 261 261 261 261 261 261 262 263 264 264 265 266 267 268 269 271 272 274 276 277 279 280 281 282 283 284 283 284 284 284 283 283
263 268 273 279 283 284 283 278 271 265 262 263 265 264 260 256 255 259 265 272 278 284 288 292 295 296 294 291 288 286 283 280 277 273 270 266 262 258 255 251 248 245 243 242 243 245 247 250 253 256 258 260 261 261 262 262 262 263 263 263 264 265 265 266 266 267 267 268 270 271 272 273 274 275 276 278 279 281 282 282 283 284 284 284 284 285
267 272 278 282 283 283 281 276 269 262 258 259 260 261 259 258 260 265 270 276 282 287 291 295 295 294 291 288 285 283 280 277 273 270 266 263 260 258 254 251 248 246 244 244 245 246 249 251 254 257 258 260 261 262 263 263 264 264 265 265 265 266 266 266 266 266 267 268 269 270 271 272 273 274 275 276 278 279 280 281 282 283 284 284 285 285
272 276 280 282 282 281 278 274 267 261 256 256 258 260 262 264 267 271 276 281 285 289 292 294 293 290 287 284 281 279 276 272 269 266 263 260 258 255 253 250 248 247 246 247 248 249 251 253 255 257 259 260 261 262 263 263 264 264 265 265 265 265 265 264 265 265 266 268 269 270 270 271 272 273 275 276 277 279 280 281 282 283 284 284 285 285
273 276 279 280 279 278 276 272 267 261 257 256 257 260 264 268 272 276 280 284 287 289 290 289 287 285 282 279 277 274 271 267 265 262 260 258 255 253 251 249 248 248 248 249 251 253 254 256 257 258 259 260 261 261 262 262 263 263 264 264 264 263 263 263 264 265 266 267 269 270 271 272 273 274 275 277 278 279 280 281 282 282 283 284 284 285
271 274 275 276 276 276 274 271 267 264 260 258 258 261 265 269 273 277 280 282 284 285 284 283 282 280 277 275 272 269 266 263 261 259 257 255 253 251 249 248 248 249 250 251 253 255 257 258 259 260 260 261 261 261 262 262 262 262 262 262 262 262 263 263 264 265 267 268 269 271 272 273 274 275 276 277 278 279 280 281 282 282 283 284 284 285
269 271 272 273 273 273 272 269 267 265 263 262 261 262 264 268 271 275 277 278 279 279 279 278 276 274 272 270 267 264 262 260 258 256 254 252 250 248 248 248 248 249 251 253 255 257 259 260 261 261 261 262 262 262 261 262 261 261 262 262 262 263 264 264 266 267 268 269 271 272 274 274 275 276 277 278 279 280 281 281 282 282 283 284 284 284
268 269 270 271 271 270 270 268 267 266 265 264 264 265 265 267 269 271 273 274 274 274 274 273 272 270 267 265 263 261 259 257 255 253 251 249 247 247 247 247 249 250 252 254 256 258 259 260 261 261 261 262 262 262 262 262 262 262 262 262 263 264 265 266 267 268 269 271 272 273 274 275 276 277 278 279 279 280 281 282 282 283 283 284 284 285
269 269 269 270 269 269 268 267 267 266 266 265 266 266 267 268 268 269 269 270 270 270 270 268 267 265 264 262 260 258 256 254 252 250 248 246 246 246 246 248 250 252 254 255 257 258 259 260 260 261 261 261 262 262 262 262 262 262 263 263 264 265 266 267 268 269 270 272 273 274 275 276 277 277 278 279 280 280 281 282 282 283 283 284 284 284
270 270 270 269 269 268 268 267 266 266 266 266 266 266 267 267 267 267 267 267 267 266 265 264 263 262 261 260 258 255 253 252 250 248 246 246 245 246 247 249 251 253 255 256 258 258 259 259 260 260 261 261 261 262 262 262 262 263 263 264 265 266 266 267 269 270 271 272 273 274 274 275 276 277 278 278 279 280 281 281 282 282 283 283 283 283
270 270 270 269 269 268 268 267 267 266 266 266 266 265 265 265 265 265 265 264 263 261 260 259 258 258 258 257 255 253 251 249 248 247 247 247 247 248 250 251 253 255 256 257 258 259 259 259 260 260 261 261 261 262 262 262 262 263 264 264 265 266 267 268 269 270 271 272 273 273 274 275 276 276 277 278 279 279 280 280 281 281 282 282 282 281
270 269 269 269 269 268 268 267 266 266 266 265 265 264 264 264 263 263 262 261 258 256 254 253 253 254 254 254 252 250 248 247 247 248 249 250 251 252 253 254 255 256 257 258 258 259 260 260 260 260 261 261 262 262 262 262 263 263 264 265 265 266 267 268 269 270 271 272 272 273 274 274 275 276 276 277 278 278 279 279 280 280 280 280 280 280
269 269 269 269 269 268 268 267 266 265 265 264 263 263 262 261 260 259 258 255 253 250 249 249 250 250 250 250 249 248 247 247 247 249 250 252 253 255 255 256 257 258 258 258 258 259 259 259 260 260 261 262 262 262 262 263 263 264 264 265 266 267 268 269 269 270 271 272 272 273 274 274 275 276 276 277 277 278 278 278 278 278 278 278 278 278
269 269 269 268 268 267 267 266 265 264 263 263 262 261 260 258 256 255 252 250 248 246 245 245 245 246 246 247 247 247 247 247 249 250 252 253 255 256 257 257 258 258 259 259 258 258 259 259 260 260 261 261 262 262 263 263 264 264 265 266 267 268 269 270 270 271 272 272 273 273 274 275 275 276 276 276 277 277 277 277 277 277 277 277 277 276
269 268 268 267 267 266 265 265 264 263 261 260 259 258 256 254 252 250 248 245 243 242 241 241 241 241 242 244 246 247 248 248 250 252 253 255 256 257 258 258 258 259 259 259 259 259 259 259 259 260 261 261 262 263 263 264 264 265 266 267 268 269 270 271 271 272 272 273 273 274 274 275 275 276 276 276 276 276 276 276 276 276 276 276 276 276
268 267 267 266 265 264 263 262 261 260 259 257 256 254 252 250 247 245 242 240 239 238 238 238 239 240 241 244 246 248 249 251 252 254 255 256 257 258 259 259 259 259 260 260 260 260 260 260 261 261 261 262 263 264 265 265 266 267 267 268 269 270 271 271 272 273 273 274 274 275 275 275 275 275 276 276 275 275 275 275 275 275 275 275 275 275
266 266 265 264 263 261 260 259 258 257 255 254 252 250 248 245 242 239 237 236 235 235 235 237 239 240 242 245 247 250 252 253 254 256 257 258 258 259 260 260 260 260 261 262 262 262 262 262 263 263 264 264 265 266 267 267 268 269 269 270 270 271 272 272 273 273 274 274 275 275 275 275 275 275 275 275 275 275 275 275 275 275 275 275 275 275
264 263 262 261 259 257 255 254 253 251 249 247 246 245 244 241 239 236 234 233 233 234 236 237 240 242 245 247 249 252 254 255 256 257 258 259 259 260 260 261 261 262 263 263 264 264 265 265 265 266 266 267 268 268 269 269 270 270 271 271 272 272 273 273 274 274 275 275 275 275 275 276 275 275 275 275 275 275 275 275 275 275 275 275 275 275
260 259 258 256 253 251 249 247 245 242 239 237 238 239 240 239 237 235 234 234 235 236 238 240 242 245 248 250 252 254 256 257 258 258 259 260 260 261 262 262 263 264 265 266 266 267 267 267 267 268 268 269 270 270 271 271 271 271 272 272 273 273 274 275 275 275 276 276 276 276 276 276 276 276 275 275 275 275 275 275 275 275 275 275 275 276
255 253 251 249 247 245 242 240 237 234 231 230 230 232 234 235 235 235 235 236 238 240 242 244 246 249 251 253 254 256 258 259 260 260 261 261 262 263 264 264 265 266 266 267 268 268 268 269 269 269 270 271 271 271 272 272 272 272 273 274 274 275 275 275 276 276 276 276 276 276 276 276 276 276 276 276 276 275 275 275 275 275 275 275 276 276
248 245 244 243 242 240 239 238 236 234 231 229 229 231 232 233 234 236 237 240 242 244 247 249 251 252 254 255 256 258 260 261 261 262 263 263 264 265 266 267 267 268 268 268 268 269 269 269 270 270 271 272 272 272 272 273 273 274 274 275 275 275 276 276 276 277 277 277 277 277 277 277 277 277 277 276 276 276 276 276 276 275 275 276 276 276
239 238 238 240 241 241 240 239 238 236 234 233 233 234 235 237 238 240 242 245 247 249 251 252 253 254 255 257 258 259 261 263 264 264 265 265 266 267 268 269 269 269 269 269 269 269 269 270 271 272 272 272 273 273 273 274 274 275 275 276 276 276 277 277 277 277 277 277 277 277 277 277 277 277 277 277 277 277 276 276 276 276 276 276 276 276
232 234 237 240 242 243 242 241 239 238 236 236 237 238 240 241 244 246 248 249 250 251 252 253 253 255 256 258 260 262 263 265 266 266 267 268 268 269 270 270 270 270 269 270 270 270 270 271 272 273 273 274 274 274 275 275 276 276 276 277 277 277 277 278 278 278 278 278 278 278 278 278 278 277 277 277 277 277 277 277 277 276 276 276 276 276
229 232 236 239 241 242 241 240 239 239 239 239 240 241 243 245 247 248 250 251 251 252 252 253 254 255 257 260 262 264 266 267 269 269 270 270 271 272 272 272 272 272 271 272 272 273 273 274 274 275 276 276 276 276 277 277 277 278 278 278 278 279 279 279 279 279 279 279 279 279 278 278 278 278 278 277 277 277 277 277 277 277 277 277 277 276
227 230 233 235 237 238 239 239 240 240 241 242 243 245 246 247 248 249 249 250 252 252 252 253 254 256 259 262 264 267 269 270 271 272 273 273 273 273 273 274 274 274 274 275 276 277 277 277 278 278 279 279 279 279 279 279 279 279 279 280 280 280 280 280 280 280 280 280 279 279 279 279 278 278 278 278 277 277 277 277 277 277 277 277 277 276
227 229 232 234 235 236 238 239 241 242 244 245 247 248 249 249 249 249 249 250 250 251 253 254 256 259 262 264 267 269 271 273 274 275 276 276 275 275 275 276 277 277 278 278 279 280 281 280 281 281 281 281 281 281 281 281 281 281 281 281 281 282 282 282 281 281 281 281 280 280 279 279 279 278 278 278 277 277 277 277 277 277 277 277 277 277
229 231 234 235 237 238 240 241 243 245 247 248 249 250 251 251 249 248 249 250 251 252 254 256 259 262 264 267 269 272 275 276 276 277 278 278 277 277 278 279 279 279 280 280 281 282 282 282 282 282 282 282 282 282 282 283 283 283 283 283 283 283 283 283 283 282 282 281 281 281 280 280 279 279 278 278 278 277 277 277 277 277 277 276 277 277
234 236 238 240 241 242 244 245 246 247 249 250 250 251 251 250 249 249 249 250 252 254 256 259 262 264 267 269 272 275 278 278 279 279 280 279 279 279 280 281 281 282 282 282 282 282 282 282 282 282 282 282 282 282 283 283 284 284 284 285 285 285 284 284 284 283 283 282 282 281 281 281 280 280 279 279 278 278 277 277 277 277 277 277 277 277
239 242 243 245 245 246 247 247 248 249 250 250 250 250 250 250 249 250 251 253 255 257 260 263 265 268 270 271 273 276 278 279 280 280 280 280 280 281 282 282 282 283 283 283 282 281 281 281 282 282 282 283 282 283 283 283 284 284 284 285 285 285 285 285 284 284 284 283 283 282 282 281 281 280 280 279 279 279 278 278 278 277 277 277 277 277
245 247 247 248 248 248 248 249 249 249 249 249 249 249 249 250 251 252 254 257 259 262 264 267 269 270 272 274 275 277 278 279 280 280 281 281 281 282 283 283 284 284 284 284 284 283 282 282 283 283 284 284 284 284 284 284 284 285 285 285 285 285 285 285 285 285 284 283 283 282 282 281 281 280 280 280 279 279 279 278 278 278 278 277 277 278
250 250 250 250 250 249 249 249 249 249 248 248 248 248 250 251 253 256 259 261 264 266 267 269 271 273 274 276 277 278 279 279 279 280 282 282 283 283 284 285 285 285 285 286 286 286 285 285 285 285 285 286 286 286 286 286 286 286 286 287 287 287 286 286 286 285 284 283 283 282 281 281 280 280 280 279 279 278 278 278 278 278 278 277 277 278
250 250 250 249 249 248 248 248 248 248 248 248 250 251 253 255 258 261 264 266 268 269 270 271 273 274 275 276 277 278 279 279 280 281 283 283 284 284 285 286 286 286 286 287 287 287 287 287 287 286 287 287 287 287 287 287 288 288 289 289 289 288 288 287 286 286 285 284 283 282 281 280 280 279 279 278 278 277 277 277 277 277 277 277 277 277
246 246 247 246 246 246 246 246 247 248 249 251 253 255 257 259 262 264 266 268 269 270 272 273 274 275 275 276 277 278 278 279 280 282 284 284 285 285 286 286 286 286 287 287 287 287 287 287 287 287 288 288 288 288 288 289 289 290 290 290 290 289 288 288 287 286 285 284 283 282 281 280 279 278 278 277 277 276 276 276 276 276 276 276 276 277
240 241 242 242 243 243 244 245 247 248 250 252 255 257 259 261 263 265 267 268 270 271 273 274 275 276 277 277 278 278 279 280 281 283 284 285 286 287 286 287 287 287 287 287 287 287 288 288 289 289 290 290 290 290 291 291 291 291 291 291 291 290 289 289 288 287 286 285 283 282 281 280 279 278 277 276 276 276 275 275 275 275 275 275 276 276
236 237 238 239 240 242 243 245 247 249 251 253 256 258 260 263 264 266 268 270 271 273 274 275 276 277 277 278 279 280 280 281 282 283 284 286 286 287 287 287 287 287 288 288 289 289 290 291 291 292 293 293 293 293 294 294 294 293 292 292 291 291 290 290 289 289 287 286 284 283 281 280 279 278 277 276 276 275 275 275 275 275 275 275 275 275
235 237 238 240 242 243 245 247 248 250 252 253 256 258 261 263 265 267 268 270 272 273 274 275 276 277 278 279 279 280 280 281 282 283 284 285 286 286 287 287 288 288 289 290 291 292 293 293 293 294 295 295 296 296 296 296 296 295 294 293 292 291 291 290 290 290 289 287 286 284 283 282 280 279 278 277 276 275 275 274 274 274 274 274 274 274
238 240 242 243 245 246 247 249 250 252 253 255 257 259 261 263 264 266 268 269 271 273 274 275 276 277 278 278 279 279 280 281 282 283 284 285 285 286 286 287 288 289 290 291 292 293 294 294 294 294 294 295 295 296 297 297 296 295 294 294 293 292 291 291 291 290 290 288 287 285 284 282 281 279 278 276 275 274 274 274 273 273 273 273 274 274
244 245 246 248 249 250 251 253 254 255 256 258 259 260 261 263 265 266 268 270 271 272 273 274 275 275 276 277 279 280 281 283 284 284 285 286 286 287 287 288 288 289 290 291 292 292 293 293 294 294 294 294 294 294 295 295 294 294 294 293 293 292 291 291 291 290 289 288 287 285 284 283 281 279 277 276 275 274 273 272 272 272 273 273 273 273
249 250 251 252 254 255 256 258 259 260 260 261 262 263 264 265 267 268 270 271 272 273 273 273 274 274 275 277 279 281 283 284 285 286 286 287 287 287 287 287 288 288 289 289 290 291 292 293 293 293 293 293 293 293 293 293 293 292 292 292 291 291 291 291 291 290 289 288 287 285 284 282 280 279 277 275 274 273 272 272 271 271 271 272 272 273
254 255 256 258 259 261 262 263 264 264 265 265 266 267 268 269 271 272 273 273 274 273 273 273 273 274 276 277 279 281 282 284 284 285 285 285 285 285 285 285 286 287 288 289 290 291 292 293 293 293 293 293 293 293 292 292 292 291 291 291 291 291 291 291 290 289 289 288 287 285 284 282 280 278 277 275 273 272 271 271 271 270 270 271 271 272
258 260 261 262 264 266 267 267 268 268 268 269 270 270 271 272 272 273 273 273 273 272 272 271 272 273 274 276 278 279 281 282 282 283 283 283 283 284 284 285 286 287 289 290 291 291 292 293 293 292 292 292 293 292 292 291 290 290 290 290 290 290 290 290 289 289 288 287 287 285 284 282 280 278 276 275 273 272 271 270 270 270 270 270 271 271
262 263 264 266 267 268 269 269 270 270 270 270 270 271 271 271 271 271 271 271 270 269 269 269 270 271 273 274 276 277 279 281 282 282 283 283 284 284 284 285 286 287 288 289 289 290 290 290 291 291 291 292 292 291 291 290 289 288 288 288 289 289 289 289 289 288 287 287 286 285 283 281 279 277 275 274 272 271 270 270 269 269 269 270 270 270
264 266 267 269 270 270 270 270 270 270 270 269 269 269 269 269 268 268 268 267 267 267 267 268 269 271 273 275 276 277 278 280 281 283 283 284 285 285 285 285 286 286 286 287 287 288 288 288 288 289 289 290 290 290 289 288 287 287 287 287 288 288 288 288 287 287 287 286 285 284 283 281 278 276 274 272 271 270 270 269 269 269 269 269 269 269
267 268 270 271 271 271 271 270 270 269 269 268 268 267 267 266 266 266 265 265 266 266 267 268 270 272 274 276 278 279 281 282 283 284 285 286 286 287 287 287 287 286 286 286 286 286 287 287 288 288 288 288 288 288 288 287 287 286 286 286 287 287 287 286 286 286 285 285 284 283 282 280 278 275 273 272 270 269 269 269 269 268 268 268 268 268
268 270 270 270 270 270 270 270 270 270 269 268 267 266 265 264 264 264 265 265 267 268 269 271 273 275 277 279 281 283 285 286 287 288 288 287 287 288 288 288 288 288 287 287 287 287 287 287 288 288 288 288 288 287 287 286 286 286 286 286 287 286 286 285 285 285 285 284 283 282 281 279 277 274 273 271 269 269 268 268 268 268 267 267 268 268
269 269 269 269 270 270 270 270 270 269 268 267 265 264 263 263 263 264 265 267 269 271 273 275 277 279 281 283 285 287 289 290 291 291 291 290 290 289 290 289 289 289 289 288 288 288 288 288 289 289 289 289 288 287 286 286 286 286 286 287 286 286 285 285 284 284 284 284 283 282 280 278 276 274 272 270 268 268 268 268 267 267 267 267 267 268
269 269 270 270 271 271 271 270 269 267 265 263 262 261 261 262 264 266 267 270 272 274 277 279 281 282 284 286 287 290 291 292 292 292 293 292 292 292 292 291 291 290 289 289 288 288 289 289 290 290 290 289 288 287 286 286 286 286 287 286 286 285 285 285 284 284 284 283 282 280 279 277 275 273 271 269 267 267 267 267 267 267 266 267 267 268
269 270 271 271 271 271 270 268 265 263 261 259 259 260 261 263 266 268 271 273 275 277 279 282 283 284 285 286 288 290 291 292 293 294 294 295 295 295 294 293 292 290 289 289 288 289 289 290 290 290 290 289 288 288 287 287 287 287 287 286 286 285 285 285 284 284 283 282 280 279 277 275 273 271 270 268 266 266 266 266 266 267 267 267 268 269
Height
3084 3084 3084 3084 3085 3085 3085 3085 3085 3085 3084 3084 3084 3083 3082 3082 3082 3082 3082 3082 3082 3082 3081 3081 3081 3081 3080 3079 3079 3078 3078 3078 3078 3078 3078 3078 3078 3078 3078 3078 3078 3078 3078 3079 3079 3079 3080 3080 3080 3080 3081 3081 3081 3081 3081 3082 3082 3082 3082 3082 3082 3082 3083 3083 3083 3083 3083 3083 3083 3083 3083 3083 3083 3083 3083 3083 3083 3083 3083 3083 3083 3083 3082 3082 3082 3082
3081 3081 3082 3082 3082 3082 3082 3082 3082 3082 3082 3082 3082 3081 3081 3080 3080 3080 3080 3080 3080 3079 3079 3079 3079 3079 3078 3078 3077 3077 3076 3076 3076 3076 3076 3076 3076 3076 3076 3077 3077 3077 3077 3077 3078 3078 3078 3078 3079 3079 3079 3079 3080 3080 3080 3080 3080 3081 3081 3081 3081 3081 3082 3082 3082 3082 3082 3082 3082 3082 3082 3082 3082 3082 3082 3082 3082 3082 3082 3082 3082 3082 3082 3081 3081 3081
3078 3078 3079 3079 3079 3079 3079 3079 3080 3080 3080 3080 3080 3079 3079 3078 3078 3078 3078 3077 3077 3077 3077 3077 3077 3077 3076 3076 3075 3075 3075 3074 3074 3074 3074 3074 3075 3075 3075 3075 3075 3076 3076 3076 3077 3077 3077 3077 3077 3077 3078 3078 3078 3078 3078 3079 3079 3079 3079 3080 3080 3080 3080 3080 3080 3080 3080 3081 3081 3081 3081 3081 3081 3080 3080 3080 3080 3081 3081 3081 3081 3080 3080 3080 3080 3080
3076 3076 3076 3076 3077 3077 3077 3077 3077 3077 3077 3077 3077 3077 3077 3077 3077 3076 3076 3075 3075 3075 3075 3075 3074 3074 3074 3074 3073 3073 3073 3073 3072 3072 3073 3073 3073 3073 3073 3074 3074 3074 3075 3075 3075 3076 3076 3076 3076 3076 3077 3077 3077 3077 3077 3077 3077 3078 3078 3078 3078 3078 3079 3079 3079 3079 3079 3079 3079 3079 3079 3079 3079 3079 3079 3079 3079 3079 3079 3079 3079 3079 3079 3079 3079 3078
3073 3073 3073 3073 3073 3074 3074 3074 3074 3075 3075 3075 3075 3075 3075 3075 3074 3074 3073 3073 3072 3072 3072 3072 3072 3072 3072 3072 3072 3071 3071 3071 3071 3071 3071 3071 3071 3072 3072 3072 3072 3073 3073 3074 3074 3074 3074 3075 3075 3075 3075 3075 3075 3076 3076 3076 3076 3076 3077 3077 3077 3077 3077 3077 3077 3077 3077 3078 3078 3078 3078 3078 3078 3078 3078 3078 3078 3078 3078 3078 3078 3078 3078 3078 3077 3077
3071 3071 3071 3071 3071 3071 3072 3072 3072 3072 3072 3072 3072 3073 3072 3072 3072 3071 3071 3070 3070 3070 3070 3070 3070 3070 3070 3070 3070 3069 3069 3069 3069 3069 3069 3070 3070 3070 3070 3071 3071 3072 3072 3072 3072 3073 3073 3073 3073 3074 3074 3074 3074 3074 3074 3074 3075 3075 3075 3075 3075 3076 3076 3076 3076 3076 3076 3077 3077 3077 3077 3077 3077 3077 3077 3077 3077 3077 3077 3077 3077 3077 3077 3077 3076 3076
3069 3068 3068 3068 3068 3069 3069 3069 3069 3070 3070 3070 3070 3070 3070 3069 3069 3068 3068 3068 3068 3067 3067 3067 3068 3068 3068 3068 3068 3068 3068 3068 3068 3068 3068 3068 3068 3069 3069 3069 3070 3070 3071 3071 3071 3072 3072 3072 3072 3072 3072 3072 3072 3073 3073 3073 3073 3073 3074 3074 3074 3074 3074 3075 3075 3075 3075 3075 3076 3076 3076 3076 3076 3076 3076 3076 3076 3076 3076 3076 3076 3075 3075 3075 3075 3075
3066 3066 3066 3066 3066 3066 3066 3067 3067 3067 3067 3067 3067 3067 3067 3067 3066 3066 3065 3065 3065 3066 3066 3066 3066 3066 3066 3066 3066 3066 3066 3066 3066 3066 3067 3067 3067 3067 3067 3068 3068 3069 3069 3069 3070 3070 3070 3071 3071 3071 3071 3071 3071 3071 3072 3072 3072 3072 3072 3072 3073 3073 3073 3073 3074 3074 3074 3074 3074 3074 3074 3075 3075 3075 3075 3074 3074 3074 3074 3074 3074 3074 3074 3074 3074 3074
3063 3063 3063 3064 3063 3063 3063 3064 3064 3064 3064 3064 3064 3064 3064 3064 3064 3064 3063 3063 3063 3064 3064 3064 3064 3064 3064 3064 3064 3064 3064 3064 3065 3065 3065 3065 3066 3066 3066 3067 3067 3067 3068 3068 3068 3068 3069 3069 3069 3069 3069 3070 3070 3070 3070 3070 3071 3071 3071 3071 3072 3072 3072 3072 3072 3072 3073 3073 3073 3073 3073 3073 3073 3073 3073 3073 3073 3073 3073 3073 3073 3073 3072 3072 3072 3072
3061 3061 3061 3061 3061 3061 3061 3061 3062 3062 3062 3062 3062 3062 3062 3062 3062 3062 3062 3062 3062 3062 3062 3062 3062 3062 3062 3062 3062 3062 3063 3063 3063 3063 3064 3064 3064 3064 3065 3065 3066 3066 3066 3067 3067 3067 3067 3067 3067 3068 3068 3068 3068 3068 3069 3069 3069 3069 3070 3070 3070 3070 3071 3071 3071 3071 3072 3072 3072 3072 3072 3072 3072 3072 3072 3072 3072 3072 3072 3071 3071 3071 3071 3071 3071 3071
3058 3058 3058 3058 3058 3058 3058 3058 3059 3059 3059 3059 3059 3060 3060 3060 3060 3060 3060 3060 3060 3060 3060 3060 3060 3060 3061 3061 3061 3061 3061 3062 3062 3062 3062 3062 3063 3063 3063 3064 3064 3065 3065 3065 3066 3066 3066 3066 3066 3066 3066 3067 3067 3067 3067 3067 3068 3068 3068 3068 3069 3069 3069 3069 3070 3070 3070 3070 3070 3070 3070 3070 3070 3070 3070 3070 3070 3070 3070 3070 3070 3070 3070 3070 3069 3069
3055 3055 3055 3055 3055 3056 3056 3056 3056 3057 3057 3057 3057 3057 3057 3057 3057 3057 3057 3058 3058 3058 3058 3058 3058 3058 3059 3059 3059 3059 3060 3060 3060 3061 3061 3061 3062 3062 3062 3062 3063 3063 3064 3064 3064 3064 3064 3065 3065 3065 3065 3065 3065 3066 3066 3066 3066 3067 3067 3067 3067 3067 3068 3068 3068 3068 3069 3069 3069 3069 3069 3069 3069 3069 3069 3069 3069 3069 3068 3068 3068 3068 3068 3068 3068 3068
3052 3052 3052 3052 3053 3053 3053 3053 3053 3054 3054 3054 3054 3055 3054 3054 3055 3055 3055 3055 3056 3056 3056 3056 3056 3057 3057 3057 3058 3058 3058 3059 3059 3059 3059 3060 3060 3060 3061 3061 3062 3062 3062 3062 3063 3063 3063 3063 3063 3063 3064 3064 3064 3064 3064 3065 3065 3065 3065 3066 3066 3066 3066 3067 3067 3067 3067 3067 3067 3067 3067 3067 3067 3067 3067 3067 3067 3067 3067 3067 3067 3067 3067 3067 3067 3067
3049 3049 3049 3050 3050 3050 3050 3051 3051 3051 3052 3052 3052 3052 3052 3052 3052 3052 3053 3053 3053 3054 3054 3054 3055 3055 3055 3056 3056 3057 3057 3057 3057 3057 3058 3058 3059 3059 3059 3060 3060 3060 3061 3061 3061 3062 3062 3062 3062 3062 3062 3062 3062 3063 3063 3063 3063 3064 3064 3064 3064 3065 3065 3065 3065 3066 3066 3066 3066 3066 3066 3066 3066 3066 3066 3066 3066 3066 3066 3066 3065 3065 3065 3065 3065 3065
3047 3047 3047 3047 3047 3047 3047 3048 3048 3048 3049 3049 3049 3049 3049 3050 3050 3051 3051 3051 3052 3052 3052 3052 3053 3053 3054 3054 3055 3055 3055 3056 3056 3057 3057 3057 3057 3057 3058 3058 3059 3059 3059 3060 3060 3060 3060 3060 3060 3061 3061 3061 3061 3061 3062 3062 3062 3062 3062 3063 3063 3063 3063 3063 3064 3064 3064 3064 3064 3064 3064 3064 3064 3064 3064 3064 3064 3064 3064 3064 3064 3064 3064 3064 3064 3064
3044 3044 3044 3044 3044 3045 3045 3045 3045 3046 3046 3047 3047 3047 3047 3048 3048 3048 3049 3049 3050 3050 3051 3051 3052 3052 3052 3053 3053 3053 3054 3054 3055 3055 3055 3056 3056 3056 3057 3057 3057 3057 3058 3058 3058 3058 3059 3059 3059 3059 3059 3059 3060 3060 3060 3060 3061 3061 3061 3061 3061 3062 3062 3062 3062 3062 3062 3062 3062 3062 3063 3063 3063 3063 3063 3063 3063 3063 3062 3062 3062 3062 3062 3062 3062 3062
3041 3041 3041 3042 3042 3042 3042 3042 3043 3043 3044 3044 3044 3045 3045 3046 3046 3047 3047 3047 3048 3048 3049 3050 3050 3051 3051 3051 3052 3052 3052 3053 3053 3054 3054 3054 3055 3055 3055 3056 3056 3056 3057 3057 3057 3057 3057 3057 3057 3057 3058 3058 3058 3058 3058 3059 3059 3059 3059 3060 3060 3060 3060 3060 3060 3061 3061 3061 3061 3061 3061 3061 3061 3061 3061 3061 3061 3061 3061 3061 3061 3061 3061 3061 3061 3061
3038 3039 3039 3039 3039 3039 3040 3040 3041 3041 3042 3042 3042 3043 3043 3044 3044 3045 3045 3046 3046 3047 3047 3048 3049 3049 3049 3050 3050 3051 3051 3052 3052 3052 3053 3053 3053 3053 3054 3054 3055 3055 3055 3055 3056 3056 3056 3056 3056 3056 3056 3056 3057 3057 3057 3057 3057 3058 3058 3058 3058 3058 3058 3058 3059 3059 3059 3059 3059 3059 3059 3059 3059 3059 3059 3059 3059 3059 3059 3059 3059 3059 3059 3059 3059 3059
3036 3036 3036 3037 3037 3037 3037 3038 3038 3039 3039 3040 3040 3041 3041 3042 3043 3043 3044 3044 3045 3046 3046 3047 3047 3048 3048 3048 3049 3049 3050 3050 3051 3051 3051 3052 3052 3052 3052 3053 3053 3053 3054 3054 3054 3054 3054 3054 3054 3055 3055 3055 3055 3055 3056 3056 3056 3056 3057 3057 3057 3057 3057 3057 3057 3057 3057 3057 3057 3057 3057 3057 3057 3058 3058 3058 3058 3058 3058 3058 3058 3057 3057 3057 3057 3057
3033 3033 3034 3034 3035 3035 3036 3036 3037 3037 3037 3038 3039 3039 3040 3041 3042 3042 3042 3043 3043 3044 3045 3045 3046 3047 3047 3047 3047 3048 3048 3049 3050 3050 3050 3050 3051 3051 3051 3051 3052 3052 3052 3052 3052 3052 3053 3053 3053 3053 3053 3053 3054 3054 3054 3054 3055 3055 3055 3055 3055 3055 3055 3055 3055 3056 3056 3056 3056 3056 3056 3056 3056 3056 3056 3056 3056 3056 3056 3056 3056 3056 3056 3056 3056 3056
3031 3031 3032 3032 3033 3033 3034 3034 3035 3036 3037 3037 3038 3038 3039 3040 3040 3041 3041 3042 3042 3043 3044 3044 3045 3045 3046 3046 3046 3047 3047 3048 3048 3048 3049 3049 3049 3050 3050 3050 3050 3051 3051 3051 3051 3051 3051 3051 3051 3051 3052 3052 3052 3052 3052 3053 3053 3053 3053 3053 3053 3053 3053 3053 3054 3054 3054 3054 3054 3054 3054 3054 3054 3054 3054 3054 3054 3054 3054 3054 3054 3054 3054 3054 3054 3054
3029 3030 3030 3031 3031 3032 3032 3033 3034 3035 3035 3036 3037 3037 3038 3039 3039 3040 3041 3041 3042 3042 3042 3043 3044 3044 3045 3045 3045 3046 3046 3047 3047 3047 3047 3048 3048 3048 3048 3049 3049 3049 3049 3049 3049 3049 3050 3050 3050 3050 3050 3050 3051 3051 3051 3051 3051 3051 3052 3052 3052 3052 3052 3052 3052 3052 3052 3052 3052 3052 3052 3052 3052 3052 3052 3052 3052 3052 3052 3052 3052 3052 3052 3052 3052 3052
3028 3028 3029 3029 3030 3031 3032 3032 3033 3034 3034 3035 3036 3037 3037 3038 3038 3039 3039 3040 3040 3041 3042 3042 3042 3043 3043 3044 3044 3044 3045 3045 3046 3046 3046 3047 3047 3047 3047 3047 3047 3048 3048 3048 3048 3048 3048 3048 3048 3048 3048 3049 3049 3049 3049 3049 3049 3050 3050 3050 3050 3050 3050 3050 3050 3050 3050 3050 3050 3050 3050 3050 3050 3050 3050 3050 3050 3050 3050 3050 3050 3050 3050 3050 3050 3050
3027 3027 3028 3028 3029 3030 3031 3032 3032 3033 3033 3034 3035 3036 3036 3037 3037 3038 3038 3039 3039 3040 3041 3041 3042 3042 3042 3042 3043 3043 3043 3044 3044 3045 3045 3045 3045 3045 3046 3046 3046 3046 3046 3046 3047 3047 3047 3047 3047 3047 3047 3047 3047 3047 3047 3047 3048 3048 3048 3048 3048 3048 3048 3048 3048 3048 3048 3048 3048 3048 3048 3048 3048 3048 3048 3048 3048 3048 3048 3048 3048 3048 3048 3048 3048 3048
3026 3026 3027 3028 3028 3029 3030 3031 3031 3032 3032 3033 3034 3035 3035 3036 3036 3037 3037 3038 3038 3039 3039 3040 3040 3041 3041 3041 3042 3042 3042 3042 3043 3043 3044 3044 3044 3044 3044 3044 3045 3045 3045 3045 3045 3045 3045 3045 3045 3045 3045 3046 3046 3046 3046 3046 3046 3046 3046 3046 3046 3046 3047 3047 3047 3047 3047 3046 3046 3046 3046 3046 3046 3046 3046 3046 3046 3046 3047 3047 3047 3047 3047 3047 3046 3046
3025 3026 3026 3027 3027 3028 3029 3030 3031 3031 3032 3032 3033 3033 3034 3035 3035 3036 3037 3037 3037 3038 3038 3039 3039 3040 3040 3040 3040 3041 3041 3042 3042 3042 3042 3042 3042 3043 3043 3043 3043 3043 3043 3043 3043 3043 3044 3044 3044 3044 3044 3044 3044 3044 3044 3044 3044 3044 3044 3044 3045 3045 3045 3045 3045 3045 3045 3044 3044 3044 3044 3044 3044 3044 3044 3044 3044 3044 3044 3044 3044 3044 3044 3044 3044 3044
3024 3025 3025 3026 3027 3027 3028 3029 3030 3031 3031 3032 3032 3032 3033 3034 3034 3035 3035 3036 3036 3037 3037 3038 3038 3038 3039 3039 3039 3040 3040 3040 3041 3041 3041 3041 3042 3042 3041 3042 3042 3042 3042 3042 3042 3042 3042 3042 3042 3042 3042 3042 3042 3042 3042 3042 3042 3043 3043 3043 3043 3043 3043 3043 3043 3043 3042 3042 3042 3042 3042 3042 3042 3042 3042 3042 3042 3042 3042 3042 3042 3042 3042 3042 3042 3042
3023 3024 3024 3025 3026 3027 3027 3028 3029 3030 3030 3031 3031 3032 3032 3032 3033 3034 3034 3035 3035 3036 3036 3037 3037 3037 3038 3038 3038 3038 3039 3039 3039 3039 3040 3040 3040 3040 3040 3040 3041 3041 3041 3041 3041 3041 3041 3041 3041 3041 3041 3041 3041 3041 3041 3041 3041 3041 3041 3041 3041 3041 3041 3041 3041 3041 3041 3041 3041 3040 3040 3040 3040 3040 3040 3040 3040 3040 3040 3040 3040 3040 3040 3040 3040 3040
3022 3023 3024 3024 3025 3026 3027 3027 3028 3028 3029 3030 3030 3031 3031 3032 3032 3032 3033 3033 3034 3035 3035 3036 3036 3037 3037 3037 3037 3037 3037 3038 3038 3038 3038 3039 3039 3039 3039 3039 3039 3039 3039 3039 3039 3039 3039 3039 3039 3039 3039 3039 3039 3039 3039 3039 3039 3039 3039 3039 3039 3039 3039 3039 3039 3039 3039 3038 3038 3038 3038 3038 3038 3038 3038 3038 3038 3038 3038 3038 3038 3038 3038 3038 3038 3038
3022 3022 3023 3024 3024 3025 3026 3026 3027 3027 3028 3028 3029 3029 3030 3031 3031 3032 3032 3033 3033 3034 3034 3035 3035 3036 3036 3036 3036 3036 3036 3037 3037 3037 3037 3037 3037 3037 3037 3037 3037 3037 3038 3038 3038 3038 3037 3038 3038 3038 3037 3037 3037 3037 3037 3037 3037 3037 3037 3037 3037 3037 3037 3037 3037 3037 3037 3037 3036 3036 3036 3036 3036 3036 3036 3036 3036 3036 3036 3036 3036 3036 3036 3036 3036 3036
3022 3022 3022 3023 3023 3024 3025 3025 3026 3026 3027 3027 3028 3028 3029 3029 3030 3031 3031 3032 3032 3032 3033 3033 3034 3034 3035 3035 3035 3035 3035 3035 3035 3035 3036 3036 3036 3036 3036 3036 3036 3036 3036 3036 3036 3036 3036 3036 3036 3036 3036 3036 3036 3036 3036 3035 3035 3035 3035 3035 3035 3035 3035 3035 3035 3035 3034 3034 3034 3034 3034 3034 3033 3033 3033 3033 3033 3033 3033 3033 3034 3034 3034 3034 3034 3033
3021 3021 3022 3022 3022 3023 3023 3024 3024 3025 3026 3026 3027 3027 3028 3028 3029 3029 3030 3031 3031 3032 3032 3032 3032 3033 3033 3033 3034 3034 3034 3034 3034 3034 3034 3034 3034 3034 3034 3034 3034 3034 3034 3034 3034 3035 3034 3034 3034 3034 3034 3034 3034 3034 3034 3033 3033 3033 3033 3033 3033 3033 3033 3033 3032 3032 3032 3032 3032 3032 3032 3031 3031 3031 3031 3031 3031 3031 3031 3031 3031 3031 3031 3031 3031 3031
3020 3020 3021 3021 3022 3022 3022 3023 3023 3024 3024 3025 3026 3026 3027 3027 3028 3028 3029 3029 3030 3030 3031 3031 3031 3031 3032 3032 3032 3032 3032 3032 3032 3032 3032 3032 3032 3032 3032 3032 3032 3032 3032 3032 3032 3032 3033 3032 3032 3032 3032 3032 3032 3032 3032 3032 3031 3031 3031 3031 3031 3031 3031 3030 3030 3030 3030 3030 3029 3029 3029 3029 3029 3029 3029 3028 3028 3028 3028 3028 3029 3029 3029 3029 3029 3029
3019 3019 3020 3020 3021 3021 3022 3022 3022 3023 3023 3024 3025 3025 3026 3026 3027 3027 3027 3028 3028 3029 3029 3029 3030 3030 3030 3030 3031 3031 3031 3031 3031 3030 3031 3031 3031 3031 3031 3031 3030 3030 3030 3030 3030 3031 3031 3031 3031 3030 3030 3030 3030 3030 3030 3029 3029 3029 3029 3029 3029 3028 3028 3028 3028 3028 3027 3027 3027 3027 3027 3027 3027 3027 3026 3026 3026 3026 3026 3026 3026 3026 3027 3027 3027 3027
3018 3018 3019 3019 3020 3020 3021 3021 3022 3022 3023 3023 3024 3024 3025 3025 3026 3026 3026 3027 3027 3027 3027 3028 3028 3028 3028 3029 3029 3029 3029 3029 3029 3029 3029 3029 3029 3029 3029 3029 3028 3028 3029 3029 3029 3029 3029 3029 3028 3028 3028 3028 3028 3027 3027 3027 3027 3027 3027 3027 3026 3026 3026 3026 3026 3025 3025 3025 3025 3024 3024 3024 3024 3024 3024 3024 3024 3024 3024 3024 3024 3024 3024 3024 3024 3024
3017 3017 3018 3018 3019 3019 3020 3020 3021 3021 3022 3022 3022 3023 3023 3024 3024 3025 3025 3025 3025 3026 3026 3026 3026 3027 3027 3027 3027 3027 3028 3027 3027 3027 3027 3027 3027 3027 3027 3027 3027 3027 3027 3027 3027 3027 3027 3027 3027 3026 3026 3026 3026 3025 3025 3025 3025 3025 3025 3024 3024 3024 3024 3023 3023 3023 3023 3022 3022 3022 3022 3022 3022 3022 3022 3022 3022 3022 3022 3022 3022 3022 3022 3022 3022 3022
3016 3016 3017 3017 3018 3018 3019 3019 3020 3020 3021 3021 3022 3022 3022 3022 3023 3023 3023 3023 3024 3024 3024 3024 3024 3025 3025 3025 3025 3026 3026 3026 3026 3025 3025 3025 3025 3025 3025 3025 3025 3025 3025 3025 3025 3025 3025 3025 3024 3024 3024 3024 3023 3023 3022 3022 3022 3022 3022 3022 3022 3022 3021 3021 3021 3021 3021 3020 3020 3020 3019 3019 3019 3019 3019 3019 3019 3019 3019 3019 3019 3019 3019 3019 3019 3020
3015 3015 3016 3016 3017 3017 3017 3018 3018 3019 3020 3020 3020 3020 3021 3021 3021 3021 3022 3022 3022 3022 3022 3022 3022 3023 3023 3023 3023 3023 3024 3024 3024 3024 3023 3023 3023 3023 3023 3023 3023 3023 3023 3023 3023 3023 3023 3023 3022 3022 3022 3022 3021 3021 3020 3020 3020 3020 3020 3020 3019 3019 3019 3019 3019 3019 3018 3018 3018 3017 3017 3017 3017 3017 3017 3017 3017 3017 3017 3017 3017 3017 3017 3017 3017 3017
3013 3014 3014 3015 3015 3016 3016 3017 3017 3018 3018 3018 3018 3019 3019 3019 3020 3020 3020 3020 3020 3021 3021 3021 3021 3021 3021 3021 3021 3022 3022 3022 3022 3022 3022 3021 3021 3021 3021 3021 3021 3021 3021 3021 3021 3021 3021 3021 3021 3020 3020 3019 3019 3018 3018 3018 3017 3017 3017 3017 3017 3017 3017 3017 3017 3017 3016 3016 3016 3015 3015 3015 3015 3015 3015 3015 3014 3014 3014 3014 3014 3014 3014 3015 3015 3015
3012 3013 3013 3014 3014 3015 3015 3015 3016 3016 3017 3017 3017 3017 3017 3018 3018 3018 3018 3019 3019 3019 3019 3019 3019 3019 3019 3019 3019 3019 3020 3020 3020 3020 3020 3019 3019 3019 3019 3019 3019 3019 3019 3019 3019 3019 3018 3018 3018 3018 3018 3017 3017 3017 3016 3015 3015 3014 3014 3014 3014 3014 3014 3014 3014 3014 3014 3014 3013 3013 3013 3012 3012 3012 3012 3012 3012 3012 3012 3012 3012 3012 3012 3012 3012 3012
3011 3012 3012 3012 3013 3013 3014 3014 3014 3015 3015 3015 3016 3016 3016 3017 3017 3017 3017 3017 3017 3017 3017 3017 3017 3017 3017 3017 3017 3017 3017 3017 3018 3018 3017 3017 3017 3017 3017 3017 3017 3017 3017 3017 3017 3016 3016 3016 3016 3016 3015 3015 3015 3015 3014 3013 3012 3012 3011 3011 3011 3011 3011 3011 3011 3012 3011 3011 3011 3011 3011 3010 3010 3010 3010 3010 3009 3009 3009 3009 3009 3009 3009 3009 3010 3010
3010 3010 3011 3011 3012 3012 3012 3012 3013 3013 3013 3014 3014 3015 3015 3015 3015 3016 3016 3016 3016 3016 3016 3016 3016 3016 3015 3015 3015 3015 3016 3016 3016 3016 3016 3016 3016 3015 3015 3015 3015 3015 3015 3015 3014 3014 3014 3013 3013 3013 3013 3013 3013 3012 3012 3011 3010 3009 3008 3008 3008 3008 3008 3008 3008 3008 3008 3008 3008 3008 3008 3008 3008 3008 3007 3007 3007 3007 3007 3007 3007 3007 3007 3007 3007 3007
3008 3009 3009 3010 3010 3010 3011 3011 3011 3012 3012 3012 3012 3013 3013 3013 3013 3013 3013 3013 3014 3014 3014 3014 3014 3014 3013 3013 3013 3014 3014 3014 3014 3014 3014 3014 3014 3013 3013 3013 3013 3012 3012 3012 3012 3012 3012 3011 3011 3011 3010 3010 3010 3010 3010 3009 3008 3007 3006 3005 3005 3005 3005 3005 3005 3005 3005 3006 3006 3006 3006 3005 3005 3005 3005 3005 3004 3004 3004 3004 3004 3004 3004 3004 3004 3004
3007 3007 3008 3008 3008 3009 3009 3009 3010 3010 3010 3010 3011 3011 3011 3011 3011 3011 3012 3011 3012 3012 3012 3012 3012 3012 3012 3012 3012 3012 3012 3012 3012 3012 3012 3012 3012 3011 3011 3011 3011 3011 3010 3010 3010 3010 3009 3009 3008 3008 3008 3008 3008 3007 3007 3007 3006 3004 3003 3003 3002 3002 3002 3002 3002 3002 3002 3002 3003 3003 3003 3003 3003 3002 3002 3002 3002 3002 3002 3002 3002 3002 3002 3002 3002 3002
3005 3006 3006 3007 3007 3007 3007 3007 3008 3008 3008 3008 3009 3009 3009 3009 3009 3009 3009 3009 3009 3009 3009 3010 3010 3009 3009 3009 3009 3009 3010 3010 3010 3010 3009 3009 3009 3009 3009 3009 3008 3008 3008 3008 3007 3007 3007 3007 3006 3006 3005 3005 3005 3005 3004 3004 3003 3002 3001 3000 3000 3000 2999 2999 2999 2999 2999 2999 3000 3000 3000 3000 3000 3000 3000 2999 2999 2999 2999 2999 2999 2999 2999 2999 2999 2999
3004 3004 3004 3005 3005 3005 3005 3006 3006 3006 3006 3007 3007 3007 3007 3007 3007 3007 3007 3007 3007 3007 3007 3007 3007 3007 3007 3007 3007 3007 3007 3007 3007 3007 3007 3007 3007 3007 3006 3006 3006 3006 3005 3005 3005 3004 3004 3004 3003 3003 3003 3002 3002 3002 3001 3000 3000 2999 2998 2998 2997 2997 2997 2996 2996 2996 2996 2996 2996 2997 2997 2997 2997 2997 2997 2997 2996 2996 2996 2996 2996 2996 2996 2997 2997 2997
3002 3002 3002 3003 3003 3003 3003 3003 3004 3004 3004 3004 3004 3004 3004 3005 3005 3005 3005 3005 3005 3005 3005 3005 3005 3005 3005 3005 3005 3005 3005 3005 3005 3005 3005 3005 3004 3004 3004 3004 3003 3003 3003 3002 3002 3002 3002 3001 3001 3001 3000 3000 2999 2999 2998 2997 2997 2996 2996 2995 2995 2994 2994 2993 2993 2993 2993 2993 2993 2993 2993 2993 2994 2994 2994 2994 2993 2993 2993 2993 2993 2993 2994 2994 2994 2994
3000 3001 3001 3001 3001 3001 3001 3001 3001 3002 3002 3002 3002 3002 3002 3002 3003 3003 3003 3003 3003 3003 3003 3003 3003 3003 3003 3003 3003 3003 3003 3003 3003 3003 3003 3003 3002 3002 3002 3001 3001 3001 3000 3000 3000 2999 2999 2999 2998 2998 2997 2997 2997 2996 2995 2995 2994 2993 2993 2992 2992 2992 2991 2991 2990 2990 2990 2990 2990 2990 2990 2990 2991 2991 2991 2991 2991 2991 2991 2991 2991 2991 2991 2991 2992 2992
2998 2998 2999 2999 2999 2999 2999 2999 2999 2999 2999 2999 3000 3000 3000 3001 3001 3001 3001 3001 3001 3001 3001 3001 3002 3002 3001 3001 3001 3001 3001 3001 3001 3000 3000 3000 3000 3000 3000 2999 2999 2998 2998 2997 2997 2997 2996 2996 2996 2995 2995 2994 2993 2993 2992 2992 2991 2991 2990 2990 2989 2989 2988 2988 2987 2987 2987 2987 2987 2987 2987 2987 2987 2987 2988 2988 2988 2988 2988 2988 2988 2988 2988 2989 2989 2989
2996 2996 2996 2996 2997 2997 2997 2997 2997 2997 2997 2997 2998 2998 2998 2999 2999 2999 2999 2999 2999 3000 3000 3000 3000 3000 2999 2999 2999 2999 2999 2998 2998 2998 2997 2997 2997 2997 2997 2997 2996 2996 2995 2995 2994 2994 2994 2993 2993 2992 2992 2991 2990 2989 2989 2989 2989 2988 2988 2987 2987 2986 2985 2985 2985 2985 2985 2985 2984 2984 2984 2984 2984 2985 2985 2985 2985 2985 2985 2985 2985 2985 2986 2987 2987 2987
2994 2994 2994 2994 2994 2994 2994 2995 2995 2995 2995 2996 2996 2996 2997 2997 2997 2997 2997 2998 2998 2998 2998 2998 2998 2997 2997 2997 2997 2997 2996 2996 2996 2995 2995 2994 2994 2994 2993 2993 2993 2992 2992 2992 2992 2991 2991 2991 2991 2990 2989 2988 2987 2986 2986 2986 2986 2986 2985 2984 2984 2983 2983 2982 2982 2982 2982 2982 2982 2982 2982 2982 2982 2982 2982 2982 2982 2983 2983 2983 2983 2983 2983 2984 2984 2985